Location: Unspecified
(45.3712°N, 0.6436°E)
Time: 00:36:14
(UTC+02:00)

ISS - Pass Details

Date: 15 July 2018
Orbit: 402 x 408 km, 51.6° (Epoch: 19 July)

Event Time Altitude Azimuth Distance (km) Brightness Sun altitude
Exits shadow 03:22:28 19° 295° (WNW) 1,060 -1.7 -20.7°
Maximum altitude 03:24:16 31° 348° (NNW) 735 -2.0 -20.6°
Drops below altitude 10° 03:27:16 10° 53° (NE) 1,473 -0.2 -20.4°
Sets 03:29:30 0° 64° (ENE) 2,335 0.8 -20.3°
